Location: Aytr�
(46.1357°N, 1.1145°W)
Time: 06:28:02
(UTC+00:00)

ISS - Pass Details

Date: 21 September 2021
Orbit: 417 x 423 km, 51.6° (Epoch: 18 October)

Event Time Altitude Azimuth Distance (km) Brightness Sun altitude
Rises 21:13:46 0° 288° (WNW) 2,366 1.0 -31.3°
Reaches altitude 10° 21:16:01 10° 299° (WNW) 1,503 -0.1 -31.6°
Enters shadow 21:16:15 11° 301° (WNW) 1,418 -0.3 -31.6°
